Lid_Strength_Index
-0 1 2 3 9 10 11 10 8 8 8 6 5 6 7 7 9 13 2 1 0 0 -1 -1 -1 -1 -1 -1 -2 -2 -2 -1 -1 -1 -1 -2 -2 -2 -2 -2 -3 -2 -2 -2 -2 -2 -2 -2 -2
0 1 3 5 11 13 12 10 9 7 6 5 6 6 7 8 5 4 3 1 0 -0 -0 -1 -1 -1 -2 -2 -2 -2 -2 -2 -1 -1 -1 -1 -2 -2 -1 -2 -2 -2 -2 -2 -1 -2 -2 -1 -1
2 2 5 8 10 12 12 8 8 7 6 6 7 6 6 7 4 3 1 0 0 0 -0 -1 -1 -1 -1 -2 -2 -2 -2 -2 -2 -2 -2 -1 -1 -2 -2 -2 -2 -2 -2 -2 -1 -2 -1 -1 -1
3 3 5 10 11 9 9 8 6 7 6 6 6 8 5 3 3 2 0 0 1 0 -0 -1 -1 -1 -1 -2 -2 -2 -2 -2 -2 -2 -2 -2 -2 -2 -2 -2 -2 -2 -1 -2 -1 -2 -1 -1 -1
3 5 9 11 10 8 7 6 6 7 7 6 6 8 7 3 1 1 1 1 1 0 -0 -1 -1 -1 -1 -2 -2 -2 -2 -2 -2 -2 -2 -2 -2 -2 -2 -2 -2 -1 -2 -1 -1 -1 -1 -1 -1
6 6 10 12 10 8 7 6 6 7 6 6 7 7 7 2 2 1 1 1 0 0 -0 -0 0 -0 -1 -1 -1 -2 -2 -2 -2 -2 -2 -2 -3 -2 -2 -2 -2 -2 -1 -1 -1 -1 -1 -1 -1
7 8 11 10 11 9 8 5 7 7 7 7 6 8 6 4 2 1 1 1 1 0 -0 -0 -0 -0 0 -0 -1 -1 -2 -2 -2 -2 -2 -2 -2 -2 -2 -2 -2 -2 -2 -1 -2 -2 -1 -1 -1
6 8 10 10 10 10 7 6 6 7 7 4 5 8 8 4 2 1 1 1 1 0 0 -0 -0 -0 -0 -0 0 -0 -1 -1 -1 -1 -1 -0 -1 -1 -2 -1 -2 -2 -2 -2 -2 -2 -1 -1 -1
4 10 12 11 10 8 6 7 6 5 6 6 5 5 4 2 2 2 3 2 2 1 0 -0 -0 -0 -0 -0 0 1 0 -0 -0 -0 1 1 -0 -0 -0 -0 -1 -2 -2 -2 -2 -2 -1 -1 -1
8 11 11 8 9 9 7 7 6 7 7 7 6 4 3 3 3 4 4 4 3 2 1 1 0 0 -0 -0 0 -0 -0 -0 -0 -0 0 -0 -0 -0 -1 1 -0 -1 -1 -1 -2 -2 -1 -0 0
8 11 9 9 8 6 7 7 6 7 8 6 6 5 4 4 4 4 4 3 3 2 1 1 1 -0 -0 0 0 -0 -0 0 0 0 0 0 0 0 -0 1 1 0 1 0 -1 -1 -0 0 1
12 9 8 8 7 6 7 6 7 7 7 5 4 4 4 4 4 4 4 3 3 2 2 1 0 1 0 0 0 0 0 -0 0 0 0 1 1 1 1 1 1 1 1 0 1 1 0 0 0
12 10 9 8 7 6 6 7 7 7 5 4 4 4 4 4 4 3 3 2 2 2 2 1 1 1 0 0 -0 -0 1 -0 -0 0 0 0 1 1 1 1 1 1 1 1 1 1 1 1 1
10 9 9 8 8 6 7 7 7 6 5 5 4 5 4 4 4 3 3 3 2 2 2 1 1 0 0 0 0 0 0 -0 -0 -0 1 0 1 1 1 1 1 1 1 1 1 1 1 1 1
8 11 10 9 8 8 7 9 8 6 5 5 5 5 4 4 3 4 3 3 2 2 2 1 1 0 1 1 0 0 -0 0 -0 -0 0 1 1 1 1 1 1 1 1 1 1 1 2 2 2
10 10 15 11 9 8 8 14 10 7 7 7 7 6 5 4 4 3 3 3 2 2 2 2 1 1 1 1 1 -0 0 0 1 0 0 0 0 1 1 1 1 1 1 1 2 2 2 3 3
12 16 14 13 9 9 9 12 10 9 9 8 8 7 6 5 4 4 3 3 3 2 2 2 1 2 1 1 1 1 1 0 0 0 1 0 0 0 1 1 1 1 1 2 2 2 3 4 3
15 14 13 14 12 11 11 11 9 9 9 11 10 9 9 7 6 4 3 3 3 3 3 3 2 2 1 1 1 1 1 1 0 0 0 1 1 0 1 1 1 1 2 2 2 2 2 2 2
12 14 13 12 10 12 13 12 11 10 10 10 9 9 9 9 7 6 4 3 3 3 3 3 3 3 2 2 2 2 2 2 1 0 -0 0 0 0 0 0 1 1 1 1 2 2 2 2 2
11 13 14 12 10 11 12 13 11 11 10 10 9 9 9 8 8 7 7 6 5 5 4 4 3 2 1 2 2 1 2 2 1 1 0 0 1 1 0 0 0 0 1 1 1 2 3 3 2
12 13 13 14 11 11 12 14 13 11 10 9 9 8 8 8 8 8 7 6 5 5 5 4 4 2 1 2 2 2 2 3 2 2 1 1 0 -0 0 0 0 0 0 1 1 2 2 3 2
15 11 11 12 15 18 12 20 15 13 12 11 9 9 9 8 8 7 7 7 7 6 5 5 4 3 2 1 2 3 3 3 3 2 1 1 1 1 0 -0 -0 0 0 1 1 2 2 2 3
13 10 12 13 15 15 15 18 17 13 14 13 11 10 9 8 8 8 7 7 7 6 4 4 3 3 3 2 2 3 3 3 3 3 2 2 1 1 1 1 0 0 0 1 1 2 2 2 2
9 11 11 12 14 20 17 17 17 15 14 13 11 10 9 8 8 8 7 6 6 5 4 4 4 4 4 3 3 3 3 3 3 3 3 2 2 2 1 1 1 0 0 1 1 1 1 1 1
11 13 19 20 19 21 16 17 17 14 12 12 12 12 10 9 8 8 7 6 6 6 5 4 4 4 4 4 4 3 3 2 3 3 3 3 3 2 2 1 2 2 1 0 0 1 1 1 1
12 13 17 22 21 19 14 19 17 12 10 10 11 10 10 10 9 8 7 6 6 5 5 5 5 5 6 5 3 2 2 2 2 2 2 2 2 2 2 1 1 0 0 0 1 1 1 1 1
13 15 12 16 17 18 18 16 13 12 12 11 11 11 10 10 10 9 8 7 7 6 6 6 6 7 7 6 6 6 5 6 6 5 4 4 3 4 4 3 3 1 0 0 1 1 1 1 1
11 9 16 15 21 22 19 18 17 15 13 12 12 11 11 10 9 8 8 7 7 7 8 8 8 8 8 8 7 7 8 7 7 7 7 7 7 7 7 6 6 5 4 4 4 2 1 1 1
13 14 13 13 15 19 21 20 14 13 12 12 12 11 10 10 10 9 9 9 9 9 9 10 9 9 9 9 8 8 8 8 8 8 8 8 8 7 7 7 7 6 6 6 6 6 5 4 3
10 12 13 17 18 16 15 17 12 11 11 10 10 10 9 8 8 9 8 9 9 10 10 9 9 10 10 9 9 9 9 9 9 9 9 8 8 7 7 7 7 7 7 7 7 7 6 6 6